"startDT [UTC]","vpos","CH4 [ppm]","stdev(CH4) [ppm]","CO2 [ppm]","stdev(CO2) [ppm]","H2O_reported [%]","stdev(H2O_reported)","CavityPressure [torr]","CavityTemp [C]","OutletValve","CH4_dry [ppm]","CO2_dry [ppm]","DasTemp [C]","EtalonTemp [C]","WarmBoxTemp [C]","MPVPosition","T_ECpre [C]","T_EC1 [C]","T_EC2 [C]","p_inlet [hPa]","p_in [hPa]","p_out [hPa]","T_inlet [C]","RH_inlet [%]","dwpt_inlet [C]","T_vent [C]","RH_vent [%]","dwpt_vent [C]","flow_vent [l min-1]","flow_inlet [l min-1]","dwpt_sample [C]","T_room [C]"
2015-04-02 00:00:00,0.0,1.93602,0.00035,405.362,0.029,0.0901,0.0021,139.997,45.000,32472.87289,1.93772,405.801,36.633,45.067,45.001,0.00,0.09,-272.71,-272.77,3,679,-6,23.8,2.5,-26.0,24.0,2.4,-26.2,5.73,1.68,-15.2,30.1
2015-04-02 00:01:00,0.0,1.93608,0.00047,405.350,0.039,0.0909,0.0015,139.999,45.000,32474.19095,1.93785,405.795,36.629,45.067,45.001,0.00,0.09,-272.71,-272.77,2,678,-6,23.8,2.5,-26.0,24.0,2.4,-26.2,5.73,1.83,-15.2,30.1
2015-04-02 00:02:00,0.0,1.93590,0.00038,405.374,0.043,0.0909,0.0018,139.997,45.000,32473.57866,1.93763,405.816,36.631,45.067,45.001,0.00,0.09,-272.71,-272.77,3,679,-6,23.8,2.5,-26.0,24.0,2.4,-26.2,5.73,1.90,-15.2,30.0
2015-04-02 00:03:00,0.0,1.93580,0.00030,405.325,0.037,0.0908,0.0015,140.000,45.000,32475.08862,1.93753,405.769,36.652,45.067,45.001,0.00,0.09,-272.71,-272.76,2,678,-6,23.8,2.5,-26.0,24.0,2.4,-26.2,5.73,1.64,-15.2,30.1
2015-04-02 00:04:00,0.0,1.93541,0.00046,405.326,0.027,0.0916,0.0014,139.999,45.000,32473.85031,1.93713,405.774,36.664,45.067,45.000,0.00,0.09,-272.71,-272.77,4,678,-6,23.8,2.5,-26.0,24.0,2.4,-26.1,5.73,1.97,-15.2,30.0
2015-04-02 00:05:00,0.0,1.93558,0.00030,405.334,0.031,0.0922,0.0018,140.002,45.000,32473.66163,1.93737,405.783,36.679,45.067,45.000,0.00,0.09,-272.71,-272.77,2,679,-6,23.8,2.5,-25.9,24.0,2.4,-26.1,5.73,1.74,-15.2,30.1
2015-04-02 00:06:00,0.0,1.93609,0.00042,405.368,0.037,0.0925,0.0016,140.000,45.000,32471.64798,1.93782,405.818,36.688,45.067,45.000,0.00,0.09,-272.70,-272.77,4,678,-6,23.8,2.5,-25.8,24.0,2.4,-26.1,5.73,1.76,-15.2,30.1
2015-04-02 00:07:00,0.0,1.93616,0.00035,405.363,0.039,0.0935,0.0017,140.000,45.000,32472.50402,1.93796,405.820,36.691,45.066,45.000,0.00,0.09,-272.71,-272.77,2,679,-6,23.8,2.5,-25.8,24.0,2.4,-26.1,5.73,1.95,-15.2,30.1
2015-04-02 00:08:00,0.0,1.93576,0.00038,405.352,0.026,0.0933,0.0017,139.998,45.000,32472.41091,1.93752,405.807,36.727,45.066,45.000,0.00,0.09,-272.71,-272.78,3,678,-6,23.8,2.6,-25.7,24.0,2.4,-26.1,5.73,1.64,-15.2,30.1
2015-04-02 00:09:00,0.0,1.93593,0.00029,405.358,0.028,0.0954,0.0027,140.000,45.000,32472.66504,1.93775,405.823,36.744,45.066,45.000,0.00,0.09,-272.71,-272.77,3,679,-6,23.8,2.6,-25.6,24.0,2.4,-26.1,5.73,1.92,-15.2,30.1
2015-04-02 00:10:00,0.0,1.93601,0.00036,405.395,0.044,0.0953,0.0013,140.000,45.000,32471.42937,1.93782,405.860,36.749,45.066,44.999,0.00,0.09,-272.71,-272.76,2,678,-6,23.8,2.6,-25.5,24.0,2.4,-26.0,5.73,1.80,-15.2,30.1
2015-04-02 00:11:00,0.0,1.93614,0.00037,405.384,0.027,0.0953,0.0011,139.999,45.000,32472.30307,1.93799,405.850,36.750,45.066,44.999,0.00,0.09,-272.71,-272.77,3,678,-6,23.8,2.6,-25.6,24.0,2.5,-25.9,5.73,1.69,-15.2,30.1
2015-04-02 00:12:00,0.0,1.93547,0.00038,405.342,0.034,0.0943,0.0015,140.000,45.000,32475.07752,1.93727,405.802,36.753,45.066,44.999,0.00,0.09,-272.72,-272.77,2,678,-6,23.8,2.6,-25.6,24.1,2.5,-25.9,5.73,1.98,-15.2,30.1
2015-04-02 00:13:00,0.0,1.93551,0.00046,405.348,0.034,0.0949,0.0015,140.001,45.000,32472.03912,1.93732,405.810,36.760,45.066,45.000,0.00,0.09,-272.70,-272.76,4,678,-6,23.8,2.6,-25.5,24.1,2.5,-25.9,5.73,1.67,-15.2,30.1
2015-04-02 00:14:00,0.0,1.93547,0.00031,405.366,0.032,0.0963,0.0020,140.003,45.000,32473.65184,1.93732,405.837,36.754,45.066,45.000,0.00,0.09,-272.71,-272.77,2,678,-6,23.9,2.6,-25.4,24.1,2.5,-25.9,5.73,1.85,-15.2,30.1
2015-04-02 00:15:00,0.0,1.93582,0.00038,405.395,0.042,0.0972,0.0015,139.997,45.000,32472.60749,1.93765,405.870,36.750,45.066,45.000,0.00,0.09,-272.71,-272.76,4,678,-6,23.9,2.6,-25.3,24.1,2.5,-25.8,5.73,1.88,-15.2,30.1
2015-04-02 00:16:00,0.0,1.93563,0.00042,405.360,0.026,0.0978,0.0018,140.000,45.000,32472.49546,1.93752,405.837,36.747,45.066,45.000,0.00,0.09,-272.70,-272.77,2,678,-6,23.9,2.7,-25.2,24.1,2.5,-25.8,5.73,1.65,-15.2,30.1
2015-04-02 00:17:00,0.0,1.93530,0.00033,405.375,0.034,0.0996,0.0016,140.001,45.000,32475.53414,1.93719,405.859,36.728,45.066,45.000,0.00,0.09,-272.71,-272.77,3,678,-6,23.9,2.7,-25.0,24.1,2.5,-25.8,5.73,1.97,-15.2,30.1
2015-04-02 00:18:00,0.0,1.93535,0.00042,405.366,0.035,0.1005,0.0015,139.998,45.000,32475.42501,1.93725,405.857,36.746,45.066,45.000,0.00,0.09,-272.71,-272.77,3,678,-6,23.9,2.7,-24.9,24.1,2.5,-25.8,5.73,1.72,-15.2,30.1
2015-04-02 00:19:00,0.0,1.93534,0.00040,405.347,0.044,0.1014,0.0018,139.999,45.000,32474.17006,1.93729,405.842,36.750,45.067,45.000,0.00,0.09,-272.71,-272.78,2,678,-6,23.8,2.7,-24.9,24.1,2.5,-25.7,5.73,1.77,-15.2,30.0
2015-04-02 00:20:00,0.0,1.93506,0.00053,405.303,0.036,0.0999,0.0016,140.003,45.000,32476.28712,1.93697,405.792,36.750,45.066,45.000,0.00,0.09,-272.71,-272.76,3,678,-6,23.8,2.7,-25.0,24.1,2.5,-25.7,5.73,1.95,-15.2,30.1
2015-04-02 00:21:00,0.0,1.93511,0.00040,405.299,0.030,0.0996,0.0015,140.000,45.000,32475.19363,1.93700,405.784,36.750,45.067,45.000,0.00,0.09,-272.71,-272.77,2,678,-6,23.8,2.7,-25.1,24.1,2.5,-25.8,5.73,1.63,-15.2,30.1
2015-04-02 00:22:00,0.0,1.93472,0.00043,405.283,0.049,0.1000,0.0016,139.998,45.000,32475.85080,1.93664,405.772,36.747,45.066,45.000,0.00,0.09,-272.71,-272.78,4,678,-6,23.9,2.7,-25.0,24.1,2.5,-25.8,5.73,1.92,-15.2,30.1
2015-04-02 00:23:00,0.0,1.93477,0.00040,405.261,0.033,0.1015,0.0017,139.999,45.000,32475.87469,1.93670,405.757,36.750,45.066,45.000,0.00,0.09,-272.71,-272.76,2,678,-6,23.9,2.8,-24.9,24.1,2.5,-25.7,5.73,1.81,-15.2,30.1
2015-04-02 00:24:00,0.0,1.93471,0.00036,405.300,0.030,0.1013,0.0014,139.999,45.000,32474.88164,1.93665,405.794,36.751,45.066,45.000,0.00,0.09,-272.71,-272.77,3,678,-6,23.9,2.8,-24.8,24.1,2.5,-25.8,5.73,1.69,-15.2,30.1
2015-04-02 00:25:00,0.0,1.93450,0.00033,405.268,0.029,0.1028,0.0015,139.999,45.000,32475.65372,1.93648,405.770,36.761,45.067,45.000,0.00,0.09,-272.72,-272.77,2,678,-6,23.9,2.8,-24.7,24.1,2.5,-25.7,5.73,1.97,-15.2,30.1
2015-04-02 00:26:00,0.0,1.93401,0.00040,405.249,0.042,0.1027,0.0018,139.998,45.000,32476.64129,1.93598,405.749,36.782,45.067,45.000,0.00,0.09,-272.71,-272.77,3,678,-6,23.9,2.8,-24.6,24.1,2.5,-25.7,5.73,1.66,-15.2,30.1
2015-04-02 00:27:00,0.0,1.93434,0.00027,405.248,0.033,0.1031,0.0017,139.999,45.000,32474.70807,1.93629,405.752,36.798,45.067,45.000,0.00,0.09,-272.70,-272.77,3,678,-6,23.9,2.8,-24.7,24.1,2.5,-25.7,5.73,1.84,-15.2,30.1
2015-04-02 00:28:00,0.0,1.93456,0.00041,405.269,0.030,0.1028,0.0022,140.001,45.000,32474.75914,1.93650,405.771,36.812,45.066,45.000,0.00,0.09,-272.72,-272.76,2,678,-6,23.9,2.8,-24.7,24.1,2.5,-25.7,5.73,1.89,-15.2,30.1
2015-04-02 00:29:00,0.0,1.93508,0.00037,405.253,0.040,0.1013,0.0017,140.004,45.000,32476.20611,1.93704,405.746,36.812,45.066,45.000,0.00,0.09,-272.70,-272.77,3,678,-6,23.9,2.8,-24.8,24.1,2.5,-25.7,5.73,1.64,-15.2,30.1
2015-04-02 00:30:00,0.0,1.93501,0.00035,405.249,0.024,0.1021,0.0014,139.999,45.000,32477.53934,1.93695,405.748,36.771,45.066,44.999,0.00,0.09,-272.71,-272.76,2,678,-6,23.9,2.8,-24.8,24.1,2.5,-25.7,5.73,1.98,-15.2,30.1
2015-04-02 00:31:00,0.0,1.93509,0.00036,405.235,0.040,0.1030,0.0015,140.000,45.000,32481.27995,1.93705,405.737,36.721,45.066,44.999,0.00,0.09,-272.70,-272.77,4,679,-6,23.9,2.8,-24.8,24.1,2.5,-25.6,5.73,1.64,-15.2,30.1
2015-04-02 00:32:00,0.0,1.93520,0.00039,405.245,0.035,0.1022,0.0014,139.998,44.999,32478.49479,1.93712,405.743,36.623,45.065,44.999,0.00,0.09,-272.71,-272.77,2,680,-6,23.8,2.8,-24.8,24.1,2.6,-25.2,5.73,1.93,-15.1,30.0
2015-04-02 00:33:00,0.0,1.93513,0.00054,405.264,0.037,0.1010,0.0020,139.997,44.998,32474.80438,1.93709,405.757,36.487,45.065,44.998,0.00,0.09,-272.71,-272.77,3,680,-6,23.7,2.7,-25.0,24.0,2.6,-25.3,5.73,1.65,-15.1,29.9
2015-04-02 00:34:00,0.0,1.93426,0.00046,405.193,0.039,0.1002,0.0017,139.999,44.998,32473.28544,1.93621,405.684,36.323,45.064,44.998,0.00,0.09,-272.71,-272.77,3,680,-6,23.6,2.8,-25.0,23.9,2.7,-25.2,5.73,1.98,-15.2,29.9
2015-04-02 00:35:00,0.0,1.93434,0.00043,405.163,0.023,0.1017,0.0016,139.996,44.997,32466.93758,1.93625,405.658,36.144,45.064,44.998,0.00,0.09,-272.71,-272.78,2,681,-6,23.5,2.8,-25.0,23.8,2.7,-25.3,5.73,1.60,-15.2,29.7
2015-04-02 00:36:00,0.0,1.93454,0.00055,405.157,0.039,0.1013,0.0019,140.002,44.997,32463.12674,1.93647,405.652,35.918,45.064,44.998,0.00,0.09,-272.72,-272.77,4,682,-6,23.4,2.8,-24.9,23.8,2.7,-25.2,5.73,1.93,-15.2,29.6
2015-04-02 00:37:00,0.0,1.93449,0.00046,405.149,0.032,0.1026,0.0018,140.002,44.996,32456.76440,1.93641,405.650,35.701,45.065,44.998,0.00,0.09,-272.72,-272.78,3,682,-6,23.4,2.8,-24.8,23.7,2.7,-25.3,5.73,1.81,-15.2,29.5
2015-04-02 00:38:00,0.0,1.93481,0.00032,405.145,0.028,0.1021,0.0018,140.001,44.996,32448.88845,1.93675,405.644,35.484,45.065,44.999,0.00,0.09,-272.72,-272.77,2,683,-6,23.3,2.8,-24.9,23.6,2.7,-25.3,5.73,1.63,-15.2,29.3
2015-04-02 00:39:00,0.0,1.93488,0.00029,405.171,0.035,0.1021,0.0012,139.998,44.996,32441.22186,1.93683,405.670,35.303,45.065,44.999,0.00,0.09,-272.71,-272.76,3,683,-6,23.2,2.8,-24.9,23.6,2.7,-25.2,5.73,1.98,-15.2,29.2
2015-04-02 00:40:00,0.0,1.93478,0.00031,405.176,0.034,0.1020,0.0018,139.998,44.996,32434.03747,1.93674,405.672,35.099,45.066,44.999,0.00,0.09,-272.71,-272.76,4,684,-6,23.1,2.8,-25.0,23.5,2.7,-25.2,5.73,1.77,-15.2,29.1
2015-04-02 00:41:00,0.0,1.93483,0.00041,405.132,0.040,0.1021,0.0020,140.000,44.997,32429.52343,1.93676,405.630,34.914,45.066,44.999,0.00,0.09,-272.71,-272.77,3,684,-6,23.1,2.9,-25.0,23.4,2.7,-25.3,5.73,1.65,-15.3,29.0
2015-04-02 00:42:00,0.0,1.93468,0.00037,405.131,0.044,0.1018,0.0010,139.997,44.997,32422.75223,1.93661,405.628,34.746,45.066,44.999,0.00,0.09,-272.72,-272.77,3,684,-6,23.0,2.9,-25.0,23.4,2.7,-25.3,5.73,2.00,-15.3,28.9
2015-04-02 00:43:00,0.0,1.93495,0.00039,405.143,0.029,0.1013,0.0016,140.002,44.998,32417.52001,1.93689,405.637,34.589,45.066,44.999,0.00,0.09,-272.71,-272.77,4,684,-6,22.9,2.9,-25.0,23.3,2.8,-25.2,5.73,1.70,-15.3,28.8
2015-04-02 00:44:00,0.0,1.93525,0.00044,405.158,0.030,0.1009,0.0017,140.000,44.998,32411.55585,1.93716,405.649,34.456,45.066,44.999,0.00,0.09,-272.71,-272.77,3,684,-6,22.8,2.9,-25.1,23.2,2.8,-25.3,5.73,1.78,-15.3,28.6
2015-04-02 00:45:00,0.0,1.93519,0.00034,405.190,0.033,0.1020,0.0018,139.997,44.998,32406.61420,1.93716,405.686,34.343,45.066,44.999,0.00,0.09,-272.72,-272.78,3,684,-6,22.8,2.9,-24.9,23.1,2.8,-25.3,5.73,1.94,-15.4,28.6
2015-04-02 00:46:00,0.0,1.93495,0.00047,405.212,0.032,0.1005,0.0023,139.998,44.998,32404.25514,1.93684,405.701,34.246,45.066,44.999,0.00,0.09,-272.71,-272.78,5,684,-6,22.8,2.9,-25.0,23.1,2.8,-25.2,5.73,1.62,-15.4,28.5
2015-04-02 00:47:00,0.0,1.93515,0.00031,405.216,0.025,0.1018,0.0022,140.001,44.999,32401.90575,1.93709,405.713,34.199,45.067,45.000,0.00,0.09,-272.71,-272.77,3,684,-6,22.8,2.9,-24.9,23.1,2.8,-25.2,5.73,2.01,-15.4,28.5
2015-04-02 00:48:00,0.0,1.93522,0.00034,405.248,0.041,0.1017,0.0012,140.000,44.999,32399.25204,1.93715,405.745,34.183,45.067,45.000,0.00,0.09,-272.71,-272.77,4,683,-6,22.8,2.9,-24.9,23.1,2.8,-25.2,5.73,1.61,-15.4,28.5
2015-04-02 00:49:00,0.0,1.93518,0.00042,405.258,0.034,0.1014,0.0017,139.997,45.000,32395.89120,1.93711,405.753,34.192,45.067,45.000,0.00,0.09,-272.72,-272.78,4,683,-6,22.8,2.9,-24.9,23.1,2.8,-25.2,5.73,1.99,-15.4,28.4
2015-04-02 00:50:00,0.0,1.93551,0.00044,405.277,0.033,0.1009,0.0016,140.000,45.000,32397.38824,1.93745,405.768,34.238,45.068,45.000,0.00,0.09,-272.71,-272.77,3,683,-6,22.8,2.9,-24.9,23.1,2.8,-25.1,5.73,1.65,-15.4,28.4
2015-04-02 00:51:00,0.0,1.93553,0.00051,405.258,0.045,0.1025,0.0020,140.002,45.000,32397.86804,1.93747,405.759,34.250,45.067,45.000,0.00,0.09,-272.71,-272.77,5,683,-6,22.8,2.9,-24.8,23.1,2.8,-25.2,5.73,1.93,-15.5,28.4
2015-04-02 00:52:00,0.0,1.93581,0.00022,405.306,0.046,0.1027,0.0018,139.999,45.000,32394.20542,1.93777,405.807,34.271,45.067,45.000,0.00,0.09,-272.72,-272.78,3,683,-5,22.8,2.9,-24.8,23.1,2.8,-25.2,5.73,1.73,-15.5,28.4
2015-04-02 00:53:00,0.0,1.93549,0.00042,405.285,0.033,0.1025,0.0018,140.003,45.001,32396.69380,1.93747,405.786,34.336,45.067,45.000,0.00,0.09,-272.72,-272.77,4,683,-5,22.8,2.9,-24.8,23.1,2.8,-25.0,5.73,1.87,-15.5,28.4
2015-04-02 00:54:00,0.0,1.93541,0.00037,405.280,0.042,0.1035,0.0015,140.000,45.001,32397.47132,1.93738,405.788,34.415,45.067,45.000,0.00,0.09,-272.71,-272.77,4,682,-5,22.9,3.0,-24.5,23.2,2.8,-25.0,5.73,1.76,-15.5,28.4
2015-04-02 00:55:00,0.0,1.93523,0.00032,405.263,0.035,0.1044,0.0012,139.998,45.002,32401.59682,1.93725,405.770,34.513,45.067,45.000,0.00,0.09,-272.72,-272.78,4,682,-5,22.9,3.0,-24.5,23.2,2.8,-25.0,5.73,1.87,-15.5,28.5
2015-04-02 00:56:00,0.0,1.93543,0.00042,405.274,0.035,0.1046,0.0016,140.000,45.002,32405.04703,1.93740,405.786,34.601,45.067,45.000,0.00,0.09,-272.71,-272.78,4,682,-5,22.9,3.0,-24.5,23.2,2.8,-25.0,5.73,1.74,-15.5,28.4
2015-04-02 00:57:00,0.0,1.93589,0.00036,405.287,0.026,0.1053,0.0016,140.001,45.002,32409.80469,1.93788,405.800,34.702,45.067,45.000,0.00,0.09,-272.72,-272.76,3,682,-5,22.9,3.0,-24.5,23.2,2.8,-25.1,5.73,1.91,-15.5,28.5
2015-04-02 00:58:00,0.0,1.93537,0.00034,405.277,0.016,0.1042,0.0018,140.000,45.002,32414.61458,1.93739,405.787,34.802,45.067,45.000,0.00,0.09,-272.71,-272.77,5,682,-5,23.0,3.0,-24.5,23.2,2.8,-25.2,5.73,1.69,-15.5,28.5
2015-04-02 00:59:00,0.0,1.93549,0.00035,405.259,0.035,0.1049,0.0016,140.000,45.002,32420.48089,1.93747,405.771,34.900,45.067,45.000,0.00,0.09,-272.72,-272.78,3,682,-5,23.0,3.0,-24.4,23.2,2.8,-25.1,5.73,1.96,-15.5,28.5
2015-04-02 01:00:00,0.0,1.93540,0.00040,405.287,0.034,0.1049,0.0024,139.997,45.002,32420.73885,1.93742,405.797,35.018,45.067,45.000,0.00,0.09,-272.71,-272.77,5,681,-5,23.0,3.0,-24.5,23.3,2.8,-24.9,5.73,1.65,-15.5,28.5
2015-04-02 01:01:00,0.0,1.93497,0.00036,405.300,0.046,0.1030,0.0014,140.000,45.002,32426.91002,1.93694,405.804,35.114,45.067,45.000,0.00,0.09,-272.71,-272.77,3,681,-5,23.0,3.0,-24.6,23.3,2.8,-25.0,5.73,1.99,-15.5,28.6
2015-04-02 01:02:00,0.0,1.93531,0.00040,405.288,0.027,0.1029,0.0017,140.000,45.002,32429.04884,1.93727,405.790,35.201,45.067,45.000,0.00,0.09,-272.72,-272.78,5,681,-5,23.0,3.0,-24.6,23.2,2.9,-24.8,5.73,1.62,-15.5,28.6
2015-04-02 01:03:00,0.0,1.93516,0.00054,405.292,0.047,0.1035,0.0022,139.998,45.002,32433.73954,1.93717,405.798,35.270,45.067,45.000,0.00,0.09,-272.72,-272.77,3,681,-5,23.1,2.9,-24.6,23.3,2.9,-24.9,5.73,2.00,-15.5,28.6
2015-04-02 01:04:00,0.0,1.93495,0.00037,405.278,0.037,0.1033,0.0015,139.998,45.002,32437.01401,1.93688,405.784,35.347,45.067,45.000,0.00,0.09,-272.71,-272.77,5,681,-5,23.1,3.0,-24.5,23.3,2.8,-24.9,5.73,1.64,-15.5,28.7
2015-04-02 01:05:00,0.0,1.93497,0.00039,405.297,0.039,0.1040,0.0022,140.001,45.001,32439.92339,1.93698,405.804,35.441,45.067,45.000,0.00,0.09,-272.72,-272.78,3,681,-5,23.2,2.9,-24.6,23.3,2.9,-24.8,5.73,1.97,-15.5,28.6
2015-04-02 01:06:00,0.0,1.93430,0.00044,405.271,0.037,0.1040,0.0021,139.999,45.001,32444.10788,1.93628,405.779,35.526,45.068,45.001,0.00,0.09,-272.72,-272.77,5,681,-5,23.2,2.9,-24.7,23.4,2.9,-24.8,5.73,1.70,-15.5,28.7
2015-04-02 01:07:00,0.0,1.93474,0.00029,405.284,0.043,0.1038,0.0018,140.000,45.001,32446.71978,1.93670,405.790,35.619,45.068,45.000,0.00,0.09,-272.72,-272.77,3,681,-5,23.2,2.9,-24.7,23.4,2.8,-24.8,5.73,1.88,-15.5,28.7
2015-04-02 01:08:00,0.0,1.93495,0.00037,405.278,0.029,0.1041,0.0016,140.001,45.001,32447.23853,1.93692,405.787,35.714,45.067,45.000,0.00,0.09,-272.72,-272.77,4,681,-5,23.2,2.9,-24.6,23.4,2.8,-24.8,5.73,1.81,-15.5,28.7
2015-04-02 01:09:00,0.0,1.93514,0.00041,405.283,0.029,0.1047,0.0018,139.998,45.001,32449.57218,1.93715,405.793,35.799,45.067,45.000,0.00,0.09,-272.71,-272.77,3,681,-5,23.2,3.0,-24.4,23.4,2.9,-24.7,5.73,1.75,-15.5,28.8
2015-04-02 01:10:00,0.0,1.93495,0.00039,405.274,0.023,0.1051,0.0019,140.001,45.001,32454.04673,1.93695,405.786,35.870,45.067,45.000,0.00,0.09,-272.72,-272.77,4,681,-5,23.2,3.0,-24.5,23.4,2.9,-24.7,5.73,1.94,-15.5,28.8
2015-04-02 01:11:00,0.0,1.93479,0.00039,405.282,0.037,0.1048,0.0014,140.000,45.001,32456.94521,1.93681,405.793,35.914,45.067,45.000,0.00,0.09,-272.70,-272.77,3,680,-5,23.2,2.9,-24.6,23.4,2.9,-24.7,5.73,1.65,-15.5,28.8
2015-04-02 01:12:00,0.0,1.93489,0.00038,405.265,0.033,0.1048,0.0016,139.999,45.001,32457.00419,1.93688,405.778,35.941,45.067,45.001,0.00,0.09,-272.72,-272.77,4,681,-5,23.3,2.9,-24.6,23.5,2.9,-24.7,5.73,2.00,-15.5,28.9
2015-04-02 01:13:00,0.0,1.93489,0.00021,405.277,0.036,0.1053,0.0011,140.000,45.001,32458.97117,1.93688,405.789,35.983,45.068,45.001,0.00,0.09,-272.71,-272.77,3,680,-5,23.3,2.9,-24.5,23.5,2.9,-24.7,5.73,1.64,-15.5,28.9
2015-04-02 01:14:00,0.0,1.93465,0.00035,405.276,0.035,0.1051,0.0020,139.999,45.001,32461.19360,1.93665,405.791,36.027,45.068,45.001,0.00,0.09,-272.71,-272.77,4,680,-5,23.3,2.9,-24.5,23.5,2.9,-24.7,5.73,1.94,-15.4,28.9
2015-04-02 01:15:00,0.0,1.93479,0.00055,405.260,0.030,0.1057,0.0016,140.000,45.001,32464.29963,1.93681,405.776,36.080,45.068,45.001,0.00,0.09,-272.71,-272.77,3,680,-5,23.3,2.9,-24.5,23.5,2.9,-24.7,5.73,1.76,-15.4,29.0
2015-04-02 01:16:00,0.0,1.93440,0.00039,405.303,0.036,0.1030,0.0018,139.999,45.001,32464.81950,1.93636,405.804,36.150,45.068,45.001,0.00,0.09,-272.71,-272.78,4,680,-5,23.4,2.9,-24.6,23.5,2.9,-24.6,5.73,1.77,-15.4,29.0
2015-04-02 01:17:00,0.0,1.93461,0.00033,405.315,0.029,0.1022,0.0019,140.001,45.001,32465.93443,1.93656,405.814,36.211,45.068,45.001,0.00,0.09,-272.72,-272.77,3,680,-5,23.4,2.9,-24.7,23.5,2.9,-24.5,5.73,1.94,-15.4,29.1
2015-04-02 01:18:00,0.0,1.93498,0.00044,405.301,0.037,0.1033,0.0018,140.001,45.001,32467.39710,1.93696,405.805,36.260,45.068,45.001,0.00,0.09,-272.71,-272.77,4,680,-5,23.4,2.9,-24.7,23.5,2.9,-24.5,5.73,1.64,-15.4,29.1
2015-04-02 01:19:00,0.0,1.93470,0.00041,405.323,0.033,0.1035,0.0015,139.998,45.001,32468.86679,1.93667,405.828,36.314,45.067,45.001,0.00,0.09,-272.72,-272.78,3,680,-5,23.4,2.9,-24.6,23.5,2.9,-24.5,5.73,1.99,-15.4,29.1
2015-04-02 01:20:00,0.0,1.93475,0.00046,405.308,0.038,0.1037,0.0010,139.998,45.001,32470.45585,1.93671,405.815,36.363,45.067,45.001,0.00,0.09,-272.71,-272.77,4,680,-5,23.4,2.9,-24.6,23.6,2.9,-24.5,5.73,1.69,-15.4,29.1
2015-04-02 01:21:00,0.0,1.93476,0.00041,405.297,0.041,0.1042,0.0015,139.999,45.001,32471.78095,1.93675,405.806,36.407,45.067,45.000,0.00,0.09,-272.71,-272.76,3,680,-5,23.4,2.9,-24.6,23.6,2.9,-24.5,5.73,1.83,-15.4,29.2
2015-04-02 01:22:00,0.0,1.93462,0.00036,405.284,0.031,0.1032,0.0012,140.000,45.000,32475.27715,1.93663,405.788,36.429,45.067,45.000,0.00,0.09,-272.72,-272.78,4,680,-5,23.5,2.9,-24.6,23.6,2.9,-24.5,5.73,1.87,-15.3,29.1
2015-04-02 01:23:00,0.0,1.93454,0.00046,405.270,0.030,0.1029,0.0015,139.999,45.000,32477.61748,1.93649,405.771,36.383,45.066,45.000,0.00,0.09,-272.71,-272.77,3,681,-5,23.5,2.9,-24.7,23.6,2.9,-24.5,5.73,1.69,-15.3,29.2
2015-04-02 01:24:00,0.0,1.93438,0.00048,405.252,0.033,0.1021,0.0016,140.001,44.999,32475.68146,1.93633,405.752,36.303,45.066,44.999,0.00,0.09,-272.71,-272.76,4,681,-5,23.4,2.8,-24.8,23.6,2.9,-24.5,5.73,1.93,-15.3,29.2
2015-04-02 01:25:00,0.0,1.93472,0.00034,405.276,0.031,0.1029,0.0021,140.000,44.999,32471.44946,1.93665,405.777,36.193,45.066,44.999,0.00,0.09,-272.71,-272.77,2,681,-5,23.3,2.9,-24.8,23.5,2.9,-24.6,5.73,1.70,-15.3,29.1
2015-04-02 01:26:00,0.0,1.93486,0.00037,405.259,0.032,0.1037,0.0018,139.998,44.998,32465.86103,1.93684,405.766,36.034,45.065,44.998,0.00,0.09,-272.72,-272.77,4,681,-5,23.2,2.9,-24.8,23.4,2.9,-24.6,5.73,1.84,-15.3,29.1
2015-04-02 01:27:00,0.0,1.93501,0.00043,405.271,0.032,0.1034,0.0014,140.000,44.997,32461.95657,1.93697,405.775,35.838,45.065,44.998,0.00,0.09,-272.70,-272.77,4,682,-5,23.2,2.9,-24.8,23.4,2.9,-24.6,5.73,1.88,-15.3,28.9
2015-04-02 01:28:00,0.0,1.93509,0.00035,405.250,0.033,0.1016,0.0018,139.998,44.997,32456.11944,1.93702,405.746,35.644,45.065,44.999,0.00,0.09,-272.71,-272.77,3,682,-5,23.1,2.9,-24.9,23.4,2.9,-24.7,5.73,1.63,-15.3,28.9
2015-04-02 01:29:00,0.0,1.93514,0.00028,405.239,0.033,0.1011,0.0014,140.001,44.996,32450.08692,1.93709,405.732,35.421,45.066,44.999,0.00,0.09,-272.72,-272.77,4,683,-5,23.1,2.9,-24.9,23.3,2.9,-24.7,5.73,1.99,-15.3,28.8
2015-04-02 01:30:00,0.0,1.93443,0.00031,405.221,0.028,0.1002,0.0016,139.998,44.997,32444.85414,1.93637,405.710,35.224,45.066,45.000,0.00,0.09,-272.71,-272.78,4,683,-5,23.0,2.9,-25.0,23.2,2.9,-24.6,5.73,1.72,-15.3,28.8
2015-04-02 01:31:00,0.0,1.93502,0.00048,405.261,0.031,0.1014,0.0017,140.001,44.997,32436.44552,1.93688,405.755,35.056,45.067,45.000,0.00,0.09,-272.71,-272.77,3,684,-5,23.0,2.9,-25.0,23.2,2.9,-24.6,5.73,1.72,-15.3,28.7
2015-04-02 01:32:00,0.0,1.93482,0.00033,405.253,0.032,0.1010,0.0016,139.998,44.997,32430.55479,1.93677,405.746,34.895,45.067,45.000,0.00,0.09,-272.71,-272.77,4,684,-5,22.9,2.9,-25.1,23.2,2.9,-24.7,5.73,1.99,-15.4,28.5
2015-04-02 01:33:00,0.0,1.93507,0.00041,405.252,0.029,0.1005,0.0018,139.997,44.997,32424.61587,1.93699,405.743,34.771,45.067,45.000,0.00,0.09,-272.71,-272.77,4,684,-5,22.9,2.8,-25.1,23.2,2.9,-24.7,5.73,1.63,-15.4,28.4
2015-04-02 01:34:00,0.0,1.93462,0.00039,405.231,0.046,0.0994,0.0015,140.000,44.997,32421.92360,1.93652,405.718,34.674,45.067,45.000,0.00,0.09,-272.71,-272.77,3,684,-5,22.8,2.9,-25.1,23.1,2.9,-24.7,5.73,1.86,-15.4,28.3
2015-04-02 01:35:00,0.0,1.93490,0.00034,405.267,0.027,0.0990,0.0016,139.998,44.998,32416.31298,1.93680,405.748,34.570,45.066,44.999,0.00,0.09,-272.71,-272.77,4,684,-5,22.8,2.8,-25.2,23.0,3.0,-24.6,5.73,1.90,-15.4,28.3
2015-04-02 01:36:00,0.0,1.93475,0.00047,405.267,0.035,0.0996,0.0012,140.001,44.998,32413.20017,1.93667,405.753,34.455,45.066,44.999,0.00,0.09,-272.72,-272.77,5,684,-5,22.7,2.9,-25.1,23.0,2.9,-24.7,5.73,1.63,-15.4,28.2
2015-04-02 01:37:00,0.0,1.93456,0.00032,405.264,0.028,0.1004,0.0018,139.997,44.998,32408.51569,1.93645,405.755,34.345,45.066,44.998,0.00,0.09,-272.72,-272.77,3,684,-5,22.6,2.9,-25.2,22.9,2.9,-24.8,5.73,2.01,-15.4,28.1
2015-04-02 01:38:00,0.0,1.93452,0.00045,405.283,0.035,0.0995,0.0011,140.001,44.998,32407.31360,1.93644,405.768,34.244,45.066,44.998,0.00,0.09,-272.71,-272.77,4,684,-5,22.6,2.9,-25.1,22.9,2.9,-24.8,5.73,1.64,-15.4,28.0
2015-04-02 01:39:00,0.0,1.93408,0.00037,405.271,0.028,0.1005,0.0020,139.999,44.998,32404.99516,1.93599,405.761,34.145,45.066,44.999,0.00,0.09,-272.72,-272.77,5,684,-5,22.5,2.9,-25.1,22.9,2.9,-24.8,5.73,1.91,-15.4,28.0
2015-04-02 01:40:00,0.0,1.93432,0.00026,405.267,0.037,0.1012,0.0018,140.000,44.999,32402.52072,1.93626,405.761,34.080,45.066,44.999,0.00,0.09,-272.71,-272.77,3,684,-5,22.5,3.0,-25.0,22.8,3.0,-24.8,5.73,1.79,-15.4,28.0
2015-04-02 01:41:00,0.0,1.93473,0.00032,405.241,0.036,0.1013,0.0019,139.999,44.999,32398.88154,1.93663,405.736,34.006,45.066,44.999,0.00,0.09,-272.71,-272.77,5,684,-5,22.5,3.0,-24.9,22.8,3.0,-24.8,5.73,1.75,-15.4,27.9
2015-04-02 01:42:00,0.0,1.93449,0.00035,405.244,0.027,0.1019,0.0021,139.997,44.999,32397.51121,1.93646,405.741,33.939,45.066,44.999,0.00,0.09,-272.72,-272.78,4,684,-5,22.4,3.0,-25.0,22.7,3.0,-24.9,5.73,1.95,-15.5,27.9
2015-04-02 01:43:00,0.0,1.93435,0.00034,405.254,0.033,0.1015,0.0017,140.002,44.999,32400.04280,1.93630,405.749,33.879,45.066,44.999,0.00,0.09,-272.71,-272.78,4,684,-5,22.3,3.0,-25.0,22.6,3.0,-24.9,5.73,1.62,-15.5,27.9
2015-04-02 01:44:00,0.0,1.93412,0.00031,405.264,0.030,0.1016,0.0016,139.998,44.999,32395.60698,1.93605,405.760,33.797,45.066,44.999,0.00,0.09,-272.72,-272.77,5,684,-5,22.3,3.0,-25.1,22.6,2.9,-25.0,5.73,2.00,-15.5,27.9
2015-04-02 01:45:00,0.0,1.93424,0.00027,405.210,0.034,0.1013,0.0017,140.002,44.999,32394.43273,1.93616,405.707,33.748,45.066,44.999,0.00,0.09,-272.71,-272.78,4,685,-5,22.2,3.0,-25.0,22.6,3.0,-24.9,5.73,1.69,-15.5,27.8
2015-04-02 01:46:00,0.0,1.93400,0.00040,405.189,0.026,0.1016,0.0020,139.999,44.999,32394.53741,1.93598,405.684,33.701,45.067,44.999,0.00,0.09,-272.73,-272.78,4,685,-5,22.1,3.0,-25.0,22.5,3.0,-25.0,5.73,1.80,-15.5,27.7